Time,TemperatureF,DewpointF,PressureIn,WindDirection,WindDirectionDegrees,WindSpeedMPH,WindSpeedGustMPH,Humidity,HourlyPrecipIn,Conditions,Clouds,dailyrainin,SoftwareType,DateUTC
2013-05-16 07:17:00,62.4,57.4,29.48,SE,135,0.0,0.0,84,0.00,,,0.00,WUHU216HW,2013-05-16 12:17:00,
2013-05-16 07:22:00,62.4,57.4,29.49,East,90,0.0,0.0,84,0.00,,,0.00,WUHU216HW,2013-05-16 12:22:00,
2013-05-16 07:27:00,62.7,57.8,29.49,ESE,113,0.0,0.0,84,0.00,,,0.00,WUHU216HW,2013-05-16 12:27:00,
2013-05-16 07:32:00,62.9,58.3,29.49,ENE,68,0.0,0.8,85,0.00,,,0.00,WUHU216HW,2013-05-16 12:32:00,
2013-05-16 07:37:00,63.1,58.5,29.49,ESE,113,0.0,0.8,85,0.00,,,0.00,WUHU216HW,2013-05-16 12:37:00,
2013-05-16 07:42:00,63.1,58.5,29.49,SE,135,0.0,2.9,85,0.00,,,0.00,WUHU216HW,2013-05-16 12:42:00,
2013-05-16 07:47:00,63.5,58.9,29.49,ESE,113,0.0,2.9,85,0.00,,,0.00,WUHU216HW,2013-05-16 12:47:00,
2013-05-16 07:52:00,63.6,59.0,29.50,ESE,113,0.0,0.0,85,0.00,,,0.00,WUHU216HW,2013-05-16 12:52:00,
2013-05-16 07:57:00,63.8,59.2,29.50,SE,135,0.0,0.0,85,0.00,,,0.00,WUHU216HW,2013-05-16 12:57:00,
2013-05-16 08:02:00,64.2,59.6,29.50,ESE,113,0.0,0.0,85,0.00,,,0.00,WUHU216HW,2013-05-16 13:02:00,
2013-05-16 08:07:00,64.2,59.6,29.50,SE,135,0.0,0.0,85,0.00,,,0.00,WUHU216HW,2013-05-16 13:07:00,
2013-05-16 08:12:00,64.4,59.8,29.50,ESE,113,0.0,0.0,85,0.00,,,0.00,WUHU216HW,2013-05-16 13:12:00,
2013-05-16 08:17:00,64.5,59.9,29.49,ESE,113,0.0,0.0,85,0.00,,,0.00,WUHU216HW,2013-05-16 13:17:00,
2013-05-16 08:22:00,64.7,60.1,29.49,East,90,0.0,0.0,85,0.00,,,0.00,WUHU216HW,2013-05-16 13:22:00,
2013-05-16 08:27:00,64.9,60.3,29.49,East,90,0.0,0.0,85,0.00,,,0.00,WUHU216HW,2013-05-16 13:27:00,
2013-05-16 08:32:00,65.4,60.8,29.49,East,90,0.0,0.0,85,0.00,,,0.00,WUHU216HW,2013-05-16 13:32:00,
2013-05-16 08:37:00,65.8,61.1,29.49,SE,135,0.0,0.0,85,0.00,,,0.00,WUHU216HW,2013-05-16 13:37:00,
2013-05-16 08:42:00,66.0,61.3,29.49,SE,135,1.1,1.1,85,0.00,,,0.00,WUHU216HW,2013-05-16 13:42:00,
2013-05-16 08:47:00,66.5,61.5,29.49,ESE,113,0.0,1.1,84,0.00,,,0.00,WUHU216HW,2013-05-16 13:47:00,
2013-05-16 08:52:00,66.9,61.9,29.49,SSE,158,1.3,1.3,84,0.00,,,0.00,WUHU216HW,2013-05-16 13:52:00,
2013-05-16 08:57:00,67.2,62.2,29.49,NE,45,0.0,1.3,84,0.00,,,0.00,WUHU216HW,2013-05-16 13:57:00,
2013-05-16 09:02:00,67.8,62.4,29.50,SE,135,0.0,0.0,83,0.00,,,0.00,WUHU216HW,2013-05-16 14:02:00,
2013-05-16 09:07:00,67.8,62.4,29.50,ESE,113,0.0,0.0,83,0.00,,,0.00,WUHU216HW,2013-05-16 14:07:00,
2013-05-16 09:12:00,68.1,62.6,29.50,SSE,158,0.0,0.0,83,0.00,,,0.00,WUHU216HW,2013-05-16 14:12:00,
2013-05-16 09:17:00,68.1,62.5,29.50,ESE,113,0.0,0.0,82,0.00,,,0.00,WUHU216HW,2013-05-16 14:17:00,
2013-05-16 09:22:00,68.1,62.8,29.50,SE,135,0.0,0.0,83,0.00,,,0.00,WUHU216HW,2013-05-16 14:22:00,
2013-05-16 09:27:00,68.3,62.6,29.50,SSE,158,0.0,3.1,82,0.00,,,0.00,WUHU216HW,2013-05-16 14:27:00,
2013-05-16 09:32:00,68.3,62.6,29.50,SSE,158,0.0,3.1,82,0.00,,,0.00,WUHU216HW,2013-05-16 14:32:00,
2013-05-16 09:37:00,68.5,62.8,29.49,SSE,158,2.6,2.6,82,0.00,,,0.00,WUHU216HW,2013-05-16 14:37:00,
2013-05-16 09:42:00,68.7,62.9,29.50,SSE,158,0.0,2.6,82,0.00,,,0.00,WUHU216HW,2013-05-16 14:42:00,
2013-05-16 09:47:00,69.4,63.6,29.50,East,90,0.0,0.0,82,0.00,,,0.00,WUHU216HW,2013-05-16 14:47:00,
2013-05-16 09:52:00,69.8,63.6,29.49,SE,135,0.0,0.0,81,0.00,,,0.00,WUHU216HW,2013-05-16 14:52:00,
2013-05-16 09:57:00,70.3,63.6,29.49,SSE,158,0.0,0.0,80,0.00,,,0.00,WUHU216HW,2013-05-16 14:57:00,
2013-05-16 10:02:00,70.8,63.2,29.49,East,90,0.0,0.0,77,0.00,,,0.00,WUHU216HW,2013-05-16 15:02:00,
2013-05-16 10:07:00,71.2,63.6,29.49,SE,135,0.0,0.0,77,0.00,,,0.00,WUHU216HW,2013-05-16 15:07:00,
2013-05-16 10:12:00,71.9,63.6,29.49,ESE,113,0.0,0.0,76,0.00,,,0.00,WUHU216HW,2013-05-16 15:12:00,
2013-05-16 10:17:00,72.3,63.9,29.49,ENE,68,0.0,0.0,75,0.00,,,0.00,WUHU216HW,2013-05-16 15:17:00,
2013-05-16 10:22:00,72.3,63.5,29.49,East,90,0.0,0.0,74,0.00,,,0.00,WUHU216HW,2013-05-16 15:22:00,
2013-05-16 10:27:00,72.5,63.3,29.49,NE,45,0.0,0.0,73,0.00,,,0.00,WUHU216HW,2013-05-16 15:27:00,
2013-05-16 10:32:00,73.0,64.2,29.49,SSE,158,0.0,0.6,74,0.00,,,0.00,WUHU216HW,2013-05-16 15:32:00,
2013-05-16 10:37:00,73.2,64.0,29.48,ESE,113,0.0,0.6,73,0.00,,,0.00,WUHU216HW,2013-05-16 15:37:00,
2013-05-16 10:42:00,73.2,63.7,29.48,SE,135,0.0,0.0,72,0.00,,,0.00,WUHU216HW,2013-05-16 15:42:00,
2013-05-16 10:47:00,73.4,63.5,29.48,SE,135,0.0,0.0,71,0.00,,,0.00,WUHU216HW,2013-05-16 15:47:00,
2013-05-16 10:52:00,73.2,63.7,29.48,South,180,0.0,0.0,72,0.00,,,0.00,WUHU216HW,2013-05-16 15:52:00,
2013-05-16 10:57:00,73.2,63.7,29.48,NE,45,0.0,0.0,72,0.00,,,0.00,WUHU216HW,2013-05-16 15:57:00,
2013-05-16 11:02:00,73.2,63.7,29.48,NE,45,0.0,0.0,72,0.00,,,0.00,WUHU216HW,2013-05-16 16:02:00,
2013-05-16 11:07:00,73.9,64.3,29.48,ESE,113,0.0,0.0,72,0.00,,,0.00,WUHU216HW,2013-05-16 16:07:00,
2013-05-16 11:12:00,74.1,64.5,29.48,ESE,113,0.0,0.0,72,0.00,,,0.00,WUHU216HW,2013-05-16 16:12:00,
2013-05-16 11:17:00,74.4,64.4,29.48,SE,135,1.7,1.7,71,0.00,,,0.00,WUHU216HW,2013-05-16 16:17:00,
2013-05-16 11:22:00,75.0,64.5,29.48,East,90,2.6,2.6,70,0.00,,,0.00,WUHU216HW,2013-05-16 16:22:00,
2013-05-16 11:27:00,75.0,64.1,29.48,SE,135,0.0,2.6,69,0.00,,,0.00,WUHU216HW,2013-05-16 16:27:00,
2013-05-16 11:32:00,75.0,64.1,29.48,ESE,113,0.8,0.8,69,0.00,,,0.00,WUHU216HW,2013-05-16 16:32:00,
2013-05-16 11:37:00,75.0,64.1,29.48,ENE,68,0.0,0.8,69,0.00,,,0.00,WUHU216HW,2013-05-16 16:37:00,
2013-05-16 11:42:00,75.0,63.9,29.48,South,180,0.0,0.8,69,0.00,,,0.00,WUHU216HW,2013-05-16 16:42:00,
2013-05-16 11:47:00,75.0,64.1,29.48,East,90,0.0,0.0,69,0.00,,,0.00,WUHU216HW,2013-05-16 16:47:00,
2013-05-16 11:52:00,75.0,64.1,29.48,SSE,158,0.0,0.0,69,0.00,,,0.00,WUHU216HW,2013-05-16 16:52:00,
2013-05-16 11:57:00,75.0,64.1,29.47,SE,135,0.0,0.0,69,0.00,,,0.00,WUHU216HW,2013-05-16 16:57:00,
2013-05-16 12:02:00,75.0,64.1,29.48,East,90,0.0,5.8,69,0.00,,,0.00,WUHU216HW,2013-05-16 17:02:00,
2013-05-16 12:07:00,75.0,63.7,29.47,SE,135,0.0,5.8,68,0.00,,,0.00,WUHU216HW,2013-05-16 17:07:00,
2013-05-16 12:12:00,75.7,64.8,29.47,ENE,68,2.2,2.2,69,0.00,,,0.00,WUHU216HW,2013-05-16 17:12:00,
2013-05-16 12:17:00,76.2,64.5,29.47,ENE,68,0.0,2.2,68,0.00,,,0.00,WUHU216HW,2013-05-16 17:17:00,
2013-05-16 12:22:00,76.4,64.6,29.47,East,90,0.0,2.2,67,0.00,,,0.00,WUHU216HW,2013-05-16 17:22:00,
2013-05-16 12:27:00,76.6,64.4,29.46,SE,135,0.0,0.0,66,0.00,,,0.00,WUHU216HW,2013-05-16 17:27:00,
2013-05-16 12:32:00,76.8,64.5,29.47,ENE,68,0.0,0.0,66,0.00,,,0.00,WUHU216HW,2013-05-16 17:32:00,
2013-05-16 12:37:00,76.6,64.4,29.47,SE,135,0.0,0.0,66,0.00,,,0.00,WUHU216HW,2013-05-16 17:37:00,
2013-05-16 12:42:00,76.6,63.9,29.46,ESE,113,0.0,2.9,65,0.00,,,0.00,WUHU216HW,2013-05-16 17:42:00,
2013-05-16 12:47:00,77.0,64.7,29.46,SE,135,0.0,2.9,66,0.00,,,0.00,WUHU216HW,2013-05-16 17:47:00,
2013-05-16 12:52:00,77.7,64.5,29.46,SE,135,0.0,0.0,64,0.00,,,0.00,WUHU216HW,2013-05-16 17:52:00,
2013-05-16 12:57:00,77.5,63.9,29.46,ESE,113,0.0,0.0,63,0.00,,,0.00,WUHU216HW,2013-05-16 17:57:00,
2013-05-16 13:02:00,77.3,63.7,29.46,ESE,113,0.0,2.4,63,0.00,,,0.00,WUHU216HW,2013-05-16 18:02:00,
2013-05-16 13:07:00,77.1,64.0,29.46,SSE,158,0.0,2.4,64,0.00,,,0.00,WUHU216HW,2013-05-16 18:07:00,
2013-05-16 13:12:00,78.0,64.8,29.46,ENE,68,0.0,2.4,65,0.00,,,0.00,WUHU216HW,2013-05-16 18:12:00,
2013-05-16 13:17:00,78.6,65.4,29.46,SE,135,0.0,2.4,64,0.00,,,0.00,WUHU216HW,2013-05-16 18:17:00,
2013-05-16 13:22:00,78.9,65.7,29.46,SSE,158,2.0,2.0,64,0.00,,,0.00,WUHU216HW,2013-05-16 18:22:00,
2013-05-16 13:27:00,78.6,64.9,29.46,SE,135,0.0,2.0,63,0.00,,,0.00,WUHU216HW,2013-05-16 18:27:00,
2013-05-16 13:32:00,78.6,65.4,29.46,NE,45,6.0,6.0,64,0.00,,,0.00,WUHU216HW,2013-05-16 18:32:00,
2013-05-16 13:38:00,78.4,64.7,29.46,ESE,113,2.9,7.1,63,0.00,,,0.00,WUHU216HW,2013-05-16 18:38:00,
2013-05-16 13:43:00,77.9,64.2,29.46,SSE,158,0.0,7.1,63,0.00,,,0.00,WUHU216HW,2013-05-16 18:43:00,
2013-05-16 13:48:00,77.5,63.9,29.46,ESE,113,0.0,4.4,63,0.00,,,0.00,WUHU216HW,2013-05-16 18:48:00,
2013-05-16 13:53:00,77.5,63.9,29.47,ESE,113,0.0,0.2,63,0.00,,,0.00,WUHU216HW,2013-05-16 18:53:00,
2013-05-16 13:58:00,77.5,63.9,29.46,SE,135,2.4,2.4,63,0.00,,,0.00,WUHU216HW,2013-05-16 18:58:00,
2013-05-16 14:03:00,77.5,63.9,29.46,East,90,4.2,4.2,63,0.00,,,0.00,WUHU216HW,2013-05-16 19:03:00,
2013-05-16 14:08:00,77.9,63.8,29.46,ESE,113,0.0,4.2,62,0.00,,,0.00,WUHU216HW,2013-05-16 19:08:00,
2013-05-16 14:13:00,78.6,64.5,29.46,South,180,0.0,4.2,62,0.00,,,0.00,WUHU216HW,2013-05-16 19:13:00,
2013-05-16 14:18:00,79.1,65.0,29.45,SE,135,0.0,0.0,62,0.00,,,0.00,WUHU216HW,2013-05-16 19:18:00,
2013-05-16 14:23:00,79.5,64.9,29.45,SE,135,0.0,7.1,61,0.00,,,0.00,WUHU216HW,2013-05-16 19:23:00,
2013-05-16 14:28:00,80.2,65.1,29.45,ESE,113,6.9,7.1,60,0.00,,,0.00,WUHU216HW,2013-05-16 19:28:00,
2013-05-16 14:33:00,80.4,64.7,29.46,ENE,68,0.0,6.9,59,0.00,,,0.00,WUHU216HW,2013-05-16 19:33:00,
2013-05-16 14:38:00,80.2,64.6,29.46,ENE,68,0.0,6.9,59,0.00,,,0.00,WUHU216HW,2013-05-16 19:38:00,
2013-05-16 14:43:00,80.4,64.7,29.46,SSE,158,4.2,4.2,59,0.00,,,0.00,WUHU216HW,2013-05-16 19:43:00,
2013-05-16 14:48:00,80.7,65.1,29.46,SSE,158,0.0,4.2,59,0.00,,,0.00,WUHU216HW,2013-05-16 19:48:00,
2013-05-16 14:53:00,81.1,64.9,29.46,SE,135,0.0,4.2,58,0.00,,,0.00,WUHU216HW,2013-05-16 19:53:00,
2013-05-16 14:58:00,81.3,65.6,29.46,ESE,113,1.5,1.5,59,0.00,,,0.00,WUHU216HW,2013-05-16 19:58:00,
2013-05-16 15:03:00,80.9,64.7,29.46,SSE,158,2.0,2.0,58,0.00,,,0.00,WUHU216HW,2013-05-16 20:03:00,
2013-05-16 15:08:00,80.9,64.7,29.46,SSE,158,0.0,2.0,58,0.00,,,0.00,WUHU216HW,2013-05-16 20:08:00,
2013-05-16 15:13:00,81.1,64.9,29.46,ESE,113,0.0,0.0,58,0.00,,,0.00,WUHU216HW,2013-05-16 20:13:00,
2013-05-16 15:18:00,80.9,64.7,29.45,SE,135,0.0,0.0,58,0.00,,,0.00,WUHU216HW,2013-05-16 20:18:00,
2013-05-16 15:23:00,81.6,64.8,29.45,SE,135,0.0,0.0,57,0.00,,,0.00,WUHU216HW,2013-05-16 20:23:00,
2013-05-16 15:28:00,81.6,64.8,29.45,ESE,113,4.2,4.2,57,0.00,,,0.00,WUHU216HW,2013-05-16 20:28:00,
2013-05-16 15:33:00,81.5,64.7,29.45,SE,135,1.3,4.2,57,0.00,,,0.00,WUHU216HW,2013-05-16 20:33:00,
2013-05-16 15:38:00,81.6,64.8,29.45,SE,135,0.0,4.2,57,0.00,,,0.00,WUHU216HW,2013-05-16 20:38:00,
2013-05-16 15:43:00,81.6,64.8,29.45,ESE,113,0.0,5.1,57,0.00,,,0.00,WUHU216HW,2013-05-16 20:43:00,
2013-05-16 15:48:00,81.3,64.0,29.45,SE,135,0.0,5.1,56,0.00,,,0.00,WUHU216HW,2013-05-16 20:48:00,
2013-05-16 15:53:00,80.9,63.7,29.45,SE,135,0.0,2.0,56,0.00,,,0.00,WUHU216HW,2013-05-16 20:53:00,
2013-05-16 15:58:00,81.1,63.8,29.45,East,90,3.3,3.3,56,0.00,,,0.00,WUHU216HW,2013-05-16 20:58:00,
2013-05-16 16:03:00,80.6,63.3,29.45,East,90,0.0,3.3,56,0.00,,,0.00,WUHU216HW,2013-05-16 21:03:00,
2013-05-16 16:08:00,80.6,63.9,29.45,SSE,158,2.9,3.3,57,0.00,,,0.00,WUHU216HW,2013-05-16 21:08:00,
2013-05-16 16:13:00,80.9,63.1,29.45,SE,135,0.0,3.3,55,0.00,,,0.00,WUHU216HW,2013-05-16 21:13:00,
2013-05-16 16:18:00,81.3,63.5,29.44,SSE,158,0.0,3.3,55,0.00,,,0.00,WUHU216HW,2013-05-16 21:18:00,
2013-05-16 16:23:00,81.6,63.8,29.44,SE,135,6.4,6.4,55,0.00,,,0.00,WUHU216HW,2013-05-16 21:23:00,
2013-05-16 16:28:00,82.2,64.8,29.44,SE,135,1.5,6.4,56,0.00,,,0.00,WUHU216HW,2013-05-16 21:28:00,
2013-05-16 16:33:00,82.2,64.3,29.43,SE,135,0.0,1.5,55,0.00,,,0.00,WUHU216HW,2013-05-16 21:33:00,
2013-05-16 16:38:00,82.5,64.1,29.43,SE,135,3.3,3.3,54,0.00,,,0.00,WUHU216HW,2013-05-16 21:38:00,
2013-05-16 16:43:00,82.2,63.8,29.43,SSE,158,0.0,3.3,54,0.00,,,0.00,WUHU216HW,2013-05-16 21:43:00,
2013-05-16 16:48:00,82.7,64.3,29.43,SSE,158,0.0,0.0,54,0.00,,,0.00,WUHU216HW,2013-05-16 21:48:00,
2013-05-16 16:53:00,82.9,64.5,29.43,ESE,113,3.5,3.5,54,0.00,,,0.00,WUHU216HW,2013-05-16 21:53:00,
2013-05-16 16:58:00,82.2,63.2,29.43,ESE,113,0.8,3.5,53,0.00,,,0.00,WUHU216HW,2013-05-16 21:58:00,
2013-05-16 17:03:00,81.3,62.9,29.43,SE,135,0.0,2.0,54,0.00,,,0.00,WUHU216HW,2013-05-16 22:03:00,
2013-05-16 17:08:00,81.1,62.8,29.43,SE,135,0.0,0.8,54,0.00,,,0.00,WUHU216HW,2013-05-16 22:08:00,
2013-05-16 17:13:00,81.6,63.3,29.43,ESE,113,1.5,1.5,54,0.00,,,0.00,WUHU216HW,2013-05-16 22:13:00,
2013-05-16 17:18:00,81.6,63.3,29.43,ESE,113,0.0,1.5,54,0.00,,,0.00,WUHU216HW,2013-05-16 22:18:00,
2013-05-16 17:23:00,81.1,62.8,29.43,SE,135,0.8,1.5,54,0.00,,,0.00,WUHU216HW,2013-05-16 22:23:00,
2013-05-16 17:28:00,80.9,62.6,29.43,SE,135,0.0,0.8,54,0.00,,,0.00,WUHU216HW,2013-05-16 22:28:00,
2013-05-16 17:33:00,80.2,63.0,29.43,SSE,158,0.0,3.8,56,0.00,,,0.00,WUHU216HW,2013-05-16 22:33:00,
2013-05-16 17:38:00,80.2,63.0,29.43,SE,135,4.4,4.4,56,0.00,,,0.00,WUHU216HW,2013-05-16 22:38:00,
2013-05-16 17:43:00,80.4,63.2,29.43,SSE,158,0.0,7.3,56,0.00,,,0.00,WUHU216HW,2013-05-16 22:43:00,
2013-05-16 17:48:00,80.4,63.2,29.42,SSE,158,0.0,7.3,56,0.00,,,0.00,WUHU216HW,2013-05-16 22:48:00,
2013-05-16 17:53:00,80.4,62.7,29.42,SSE,158,0.0,0.0,55,0.00,,,0.00,WUHU216HW,2013-05-16 22:53:00,
2013-05-16 17:58:00,80.4,62.7,29.42,SSE,158,0.0,0.0,55,0.00,,,0.00,WUHU216HW,2013-05-16 22:58:00,
2013-05-16 18:03:00,80.4,62.7,29.43,SSE,158,1.1,1.1,55,0.00,,,0.00,WUHU216HW,2013-05-16 23:03:00,
2013-05-16 18:08:00,79.8,62.2,29.42,ESE,113,0.0,1.1,55,0.00,,,0.00,WUHU216HW,2013-05-16 23:08:00,
2013-05-16 18:13:00,79.8,62.2,29.42,ESE,113,0.0,1.1,55,0.00,,,0.00,WUHU216HW,2013-05-16 23:13:00,
2013-05-16 18:18:00,79.8,62.2,29.42,ESE,113,0.0,0.0,55,0.00,,,0.00,WUHU216HW,2013-05-16 23:18:00,
2013-05-16 18:23:00,79.8,63.2,29.42,SE,135,0.0,0.0,57,0.00,,,0.00,WUHU216HW,2013-05-16 23:23:00,
2013-05-16 18:28:00,79.5,62.9,29.42,SSE,158,0.0,0.0,57,0.00,,,0.00,WUHU216HW,2013-05-16 23:28:00,
2013-05-16 18:33:00,79.5,62.9,29.42,SSE,158,0.0,0.0,57,0.00,,,0.00,WUHU216HW,2013-05-16 23:33:00,
2013-05-16 18:38:00,80.2,63.0,29.42,SSE,158,0.0,0.0,56,0.00,,,0.00,WUHU216HW,2013-05-16 23:38:00,
2013-05-16 18:43:00,80.2,63.0,29.42,SSE,158,0.0,0.0,56,0.00,,,0.00,WUHU216HW,2013-05-16 23:43:00,
2013-05-16 18:48:00,80.4,63.7,29.42,ENE,68,0.0,0.0,57,0.00,,,0.00,WUHU216HW,2013-05-16 23:48:00,
2013-05-16 18:53:00,80.6,63.9,29.42,ENE,68,0.0,0.0,57,0.00,,,0.00,WUHU216HW,2013-05-16 23:53:00,
2013-05-16 18:58:00,80.2,63.5,29.42,SE,135,0.0,0.0,57,0.00,,,0.00,WUHU216HW,2013-05-16 23:58:00,
2013-05-16 19:03:00,80.2,63.5,29.42,SE,135,0.0,0.0,57,0.00,,,0.00,WUHU216HW,2013-05-17 00:03:00,
2013-05-16 19:08:00,78.9,62.4,29.43,SSE,158,0.0,0.0,57,0.00,,,0.00,WUHU216HW,2013-05-17 00:08:00,
2013-05-16 19:13:00,78.9,62.9,29.43,SE,135,0.0,0.0,58,0.00,,,0.00,WUHU216HW,2013-05-17 00:13:00,
2013-05-16 19:18:00,78.6,62.1,29.43,SE,135,2.6,2.6,57,0.00,,,0.00,WUHU216HW,2013-05-17 00:18:00,
2013-05-16 19:23:00,78.6,62.1,29.43,South,180,0.0,2.6,57,0.00,,,0.00,WUHU216HW,2013-05-17 00:23:00,
2013-05-16 19:28:00,78.4,61.9,29.43,ESE,113,0.0,0.0,57,0.00,,,0.00,WUHU216HW,2013-05-17 00:28:00,
2013-05-16 19:33:00,78.0,62.0,29.42,SE,135,0.0,5.3,58,0.00,,,0.00,WUHU216HW,2013-05-17 00:33:00,
2013-05-16 19:38:00,77.7,62.2,29.42,SE,135,0.0,5.3,59,0.00,,,0.00,WUHU216HW,2013-05-17 00:38:00,
2013-05-16 19:43:00,77.1,61.7,29.43,SE,135,0.0,3.3,59,0.00,,,0.00,WUHU216HW,2013-05-17 00:43:00,
2013-05-16 19:48:00,76.8,61.8,29.43,SE,135,0.0,0.0,60,0.00,,,0.00,WUHU216HW,2013-05-17 00:48:00,
2013-05-16 19:53:00,76.4,61.5,29.43,ESE,113,4.6,4.6,60,0.00,,,0.00,WUHU216HW,2013-05-17 00:53:00,
2013-05-16 19:57:00,75.7,60.9,29.43,SE,135,0.0,4.6,60,0.00,,,0.00,WUHU216HW,2013-05-17 00:57:00,
2013-05-16 19:58:00,75.9,61.0,29.43,SE,135,0.0,4.6,60,0.00,,,0.00,WUHU216HW,2013-05-17 00:58:00,
2013-05-16 20:00:00,75.5,60.7,29.43,ESE,113,0.8,4.6,60,0.00,,,0.00,WUHU216HW,2013-05-17 01:00:00,
2013-05-16 20:01:00,75.3,61.0,29.43,ESE,113,0.0,4.6,61,0.00,,,0.00,WUHU216HW,2013-05-17 01:01:00,
2013-05-16 20:02:00,75.3,61.0,29.43,ESE,113,0.0,0.8,61,0.00,,,0.00,WUHU216HW,2013-05-17 01:02:00,
2013-05-16 20:04:00,75.3,61.0,29.43,SE,135,0.0,0.8,61,0.00,,,0.00,WUHU216HW,2013-05-17 01:04:00,
2013-05-16 20:06:00,75.0,60.6,29.43,SE,135,0.0,0.8,61,0.00,,,0.00,WUHU216HW,2013-05-17 01:06:00,
2013-05-16 20:07:00,75.0,60.6,29.43,SE,135,0.0,0.8,61,0.00,,,0.00,WUHU216HW,2013-05-17 01:07:00,
2013-05-16 20:09:00,74.8,60.5,29.43,ESE,113,0.4,0.8,61,0.00,,,0.00,WUHU216HW,2013-05-17 01:09:00,
2013-05-16 20:10:00,74.4,60.5,29.43,SSE,158,0.0,0.4,62,0.00,,,0.00,WUHU216HW,2013-05-17 01:10:00,
2013-05-16 20:11:00,74.4,60.5,29.43,SSE,158,0.0,0.4,62,0.00,,,0.00,WUHU216HW,2013-05-17 01:11:00,
2013-05-16 20:13:00,74.4,60.5,29.43,SE,135,0.0,0.4,62,0.00,,,0.00,WUHU216HW,2013-05-17 01:13:00,
2013-05-16 20:14:00,74.1,60.2,29.43,SE,135,0.0,0.4,62,0.00,,,0.00,WUHU216HW,2013-05-17 01:14:00,
2013-05-16 20:15:00,74.1,60.2,29.43,SE,135,0.0,0.4,62,0.00,,,0.00,WUHU216HW,2013-05-17 01:15:00,
2013-05-16 20:17:00,73.9,60.5,29.43,SE,135,0.0,0.4,63,0.00,,,0.00,WUHU216HW,2013-05-17 01:17:00,
2013-05-16 20:18:00,73.7,60.5,29.43,ESE,113,3.8,3.8,63,0.00,,,0.00,WUHU216HW,2013-05-17 01:18:00,
2013-05-16 20:19:00,73.7,60.3,29.43,ESE,113,3.8,3.8,63,0.00,,,0.00,WUHU216HW,2013-05-17 01:19:00,
2013-05-16 20:20:00,73.7,60.3,29.43,ESE,113,3.8,3.8,63,0.00,,,0.00,WUHU216HW,2013-05-17 01:20:00,
2013-05-16 20:22:00,73.5,60.1,29.43,SE,135,0.0,3.8,63,0.00,,,0.00,WUHU216HW,2013-05-17 01:22:00,
2013-05-16 20:23:00,73.4,59.9,29.43,SE,135,0.0,3.8,63,0.00,,,0.00,WUHU216HW,2013-05-17 01:23:00,
2013-05-16 20:24:00,73.4,59.9,29.43,SE,135,0.0,3.8,63,0.00,,,0.00,WUHU216HW,2013-05-17 01:24:00,